Погода в Таразе

Погода в Таразе : погода сейчас, прогноз погоды и архив. Всё, что Вы хотите узнать о погоде в Таразе!

Поиск расширенной информации на нашем сайте:

Другие новости

Новости СМИ2

Главная страница сайта

Новости сайта

03.07.2017

Напоминаем, что на нашем специализированном сайте Метеоцентр.Азия вы можете получить высокодетализированные автоматические прогнозы погоды по пунктам России, СНГ и мира в авиационном формате (включающие направление и скорость ветра, видимость, явления погоды, количество и форму облачности, нижнюю и верхнюю границу облачности).


Погода в Таразе - сегодня

Время (UTC), дата Ветер
(°,м/с) 
Видим.   Явления Облачность Т
(°С)
Тd
(°С)
f(%) Тe
(°С)
Pmin
(гПа)
dP
(гПа)
Po
(мм)
O2
(г/м3)
Тmin Tmax R s Состояние
почвы
21 14.10.18 тихо ()   10 км    10/10 1000 м 
[Sc diur, vesp]
+5.6 -2.8 55 +6  1018  -2.4  705  279           
09 15.10.18 300 (СЗ) 20000 м  {ливн. осадки}  10/10 600 м кучево-дожд. 
[Cb cap]
+10.5 +2.3 57 +9  1010.5  -1.9  701  272           
15 15.10.18 270 (З) 15-16{18}  10 км  {ливн. осадки}  10/10 1000 м 
[Sc diur, vesp]
+4.7 +1.7 81 1015.8  3.8  704  278    +12.4  0.0     
21 15.10.18 250 (З) 10 км    10/10 600 м кучево-дожд. 
[Cb cap]
+1.4 -2.4 76 -1  1022  1.6  707  284           
03 16.10.18 тихо ()   20000 м  {снег}  10/10 1000 м 
[Sc diur, vesp]
+0.2 -0.4 96 1023.3  0.4  708  285      неравномерный
мокрый или
старый снег
100% 
09 16.10.18 150 (ЮВ) 20000 м  {ливн. осадки}  10/10 600 м кучево-дожд. 
[Cb cap]
+2.9 -1.3 74 +2  1023.3  0.4  709  283           
21 16.10.18 тихо ()   4000 м  слаб. снег  10/10 600 м 
[Ns]
-2.2 -2.5 98 -2  1034.4  1.9  715  291           
03 17.10.18 230 (ЮЗ) 20000 м    4/3 1000 м верхняя 
[Sc diur, vesp|Ci sp]
-2.3 -3.6 91 -2  1037.4  1.2  717  292      равномерный
сухой снег
100% 
09 17.10.18 230 (ЮЗ) 20000 м    3/3 1000 м 
[Sc diur, vesp]
+4.9 -5.4 47 +5  1034.9  -1.2  717  284           
12 17.10.18 050 (СВ) 20000 м    3/3 1000 м 
[Sc diur, vesp]
+4.2 -5.6 49 +5  1033.7  -1.3  716  285           
15 17.10.18 320 (СЗ) 10 км    ясно 
-0.5 -5 72 1034.3  -0.8  715  289    +6.1       
18 17.10.18 230 (ЮЗ) 10 км    ясно 
-2.5 -3.7 91 -4  1034.3  -0.5  715  291    +6.1       
21 17.10.18 250 (З) 10 км    3/0 средняя 
[Ac lent]
-1.5 -5.1 76 -1  1031.9  -2.2  713  290           
06 18.10.18 250 (З) 20000 м    10/4 1000 м средняя, верхняя 
[Sc diur, vesp|Ac lent|Ci sp]
+7.3 -4.1 44 +7  1025  -1.6  711  279  -3.1         
09 18.10.18 250 (З) 20000 м    10/5 1000 м средняя, верхняя 
[Sc diur, vesp|Ac lent|Ci sp]
+9.8 -5 35 +9  1022.3  -1.9  709  276           
12 18.10.18 340 (С) 20000 м    10/3 1000 м средняя, верхняя 
[Sc diur, vesp|Ac lent|Ci sp]
+8.1 -1.9 49 +8  1022.2  -0.4  709  278           
15 18.10.18 210 (ЮЗ) 20000 м    10/4 1000 м средняя 
[Sc diur, vesp|Ac lent]
+8.3 -4.7 39 +8  1021.9  -0.3  709  278    +10.3       
18 18.10.18 220 (ЮЗ) 20000 м    10/3 1000 м средняя 
[Sc diur, vesp|Ac lent]
+7.7 -4.4 42 +7  1021.4  -0.6  708  278    +10.3       
21 18.10.18 210 (ЮЗ) 20000 м    10/10 600 м кучево-дожд. 
[Cb cap]
+7.3 -3.3 47 +7  1021.7  0.2  708  278           
06 19.10.18 270 (З) 20000 м    10/10 600 м кучево-дожд. 
[Cb cap]
+8.1 -3.6 43 +8  1023.8  0.9  710  278  +6.6         
09 19.10.18 250 (З) 20000 м    10/8 600 м кучево-дожд., средняя 
[Cb cap|Ac lent]
+12.1 -3.3 34 +12  1023.4  0.7  710  274           
12 19.10.18 230 (ЮЗ) 20000 м    9/4 1000 м средняя, верхняя 
[Sc diur, vesp|Ac lent|Ci sp]
+10 -3 40 +10  1025.2  1.1  711  277           
15 19.10.18 тихо ()   10 км    9/4 1000 м верхняя 
[Sc diur, vesp|Ci sp]
+5.1 -2.1 60 +5  1028.3  1.6  713  282    +12.1       
18 19.10.18 300 (СЗ) 10 км    4/4 1000 м 
[Sc diur, vesp]
+4.8 -2.2 60 +4  1028.8  0.4  713  282    +12.1       
21 19.10.18 тихо ()   10 км    ясно 
+3.6 -2 67 +4  1029.2  713  284           
Время (UTC), дата Ветер
(°,м/с) 
Видим.   Явления Облачность Т
(°С)
Тd
(°С)
f(%) Тe
(°С)
Pmin
(гПа)
dP
(гПа)
Po
(мм)
O2
(г/м3)
Тmin Tmax R s Состояние
почвы

Для получения пояснительной информации подведите курсор к названию столбца.

ПОГОДА в Таразе - архив

Всё, что Вы хотите узнать о погоде в Таразе - удобно и подробно!

Выберите нужную дату (начиная с 1 января 2015* года) и нажмите кнопку "Найти".
Будут отображены архивные сводки погоды по пункту Тараз, начиная с указанной даты.


Отображать данные в формате CSV (для использования в таблицах Excel)


Внимание! Наш архив погоды предназначен исключительно для личного некоммерческого использования в познавательных целях. Если Вам необходимы официальные справки о состоянии погоды (для производственных, юридических, коммерческих и т.п. целей), обращайтесь в органы Росгидромета.

*Примечание: данная дата относится к архиву по метеостанциям СССР (Россия, СНГ, Балтия).
Архив по метеостанциям Зарубежной Европы и Азии (кроме Китая) хранится 10 дней, по другим регионам земного шара (Китай, Африка, Америка, Австралия, Океания) - 1 день.

Тараз - район местоположения метеостанции


Название, широта, долгота, высота метеостанции:
Тараз (город) 42.9°ш. 71.4°д. 651 м над ур. моря [Казахстан]

Дополнительная информация

В oтличие oт бoльшинства пoгoдных сайтoв мы публикуем пoдрoбную метеoинфoрмацию в детальнoм прoфессиoнальнoм фoрмате.

Характеристики температуры и влажнoсти вoздуха измеряются на высoте 2 м в тени вдали oт зданий и деревьев.
Скoрoсть ветра измеряется на высoте 10 м (на урoвне рoста челoвека скoрoсть ветра ниже в 1.5-2 раза). Если метеoстанция нахoдится в гoрoде или в лесу, тo скoрoсть ветра занижена на 2-4 м/с пo сравнению с oткрытым местoм. Скoрoсть ветра над акватoриями крупных рек и oзёр, а также на вершинах хoлмoв на 2-5 м/с выше, чем в oбычных услoвиях.
Атмoсфернoе давление в разных тoчках местнoсти мoжет значительнo oтличаться oт давления на метеoстанции, в зависимoсти oт услoвий рельефа (при пoдъёме на 10 м давление пoнижается примернo на 1 мм рт.ст.).